When you browse on this site, cookies collect data to enhance your experience and personalize the content and advertising you see.
Visit our Privacy Policy to learn more. By continuing to use the site, you agree to this use of cookies and data.
EN

Hourly Weather Huddersfield

Today, 4 July, Saturday

Time Temperature Precipitation Wind Pressure Humidity
00:00 +15°C° 0 mm 4 mps 738 mmHg 94%
01:00 +15°C° 0.6 mm 4 mps 738 mmHg 94%
02:00 +15°C° 0.6 mm 4 mps 737 mmHg 94%
03:00 +15°C° 0.6 mm 5 mps 737 mmHg 94%
04:00 +15°C° 0.3 mm 5 mps 737 mmHg 93%
05:00 +15°C° 0.3 mm 4 mps 737 mmHg 93%
06:00 +15°C° 0 mm 4 mps 737 mmHg 90%
07:00 +15°C° 0.2 mm 4 mps 737 mmHg 90%
08:00 +15°C° 0.2 mm 4 mps 737 mmHg 90%
09:00 +15°C° 0.2 mm 5 mps 738 mmHg 89%
10:00 +16°C° 0.1 mm 5 mps 738 mmHg 88%
11:00 +16°C° 0.1 mm 5 mps 738 mmHg 86%
12:00 +17°C° 0.1 mm 5 mps 738 mmHg 85%
13:00 +17°C° 0 mm 5 mps 738 mmHg 84%
14:00 +17°C° 0 mm 5 mps 738 mmHg 84%
15:00 +17°C° 0 mm 5 mps 738 mmHg 83%
16:00 +17°C° 0 mm 5 mps 738 mmHg 84%
17:00 +17°C° 0 mm 4 mps 738 mmHg 85%
18:00 +17°C° 0 mm 4 mps 738 mmHg 85%
19:00 +16°C° 0 mm 5 mps 737 mmHg 86%
20:00 +16°C° 0 mm 5 mps 737 mmHg 86%
21:00 +16°C° 0 mm 6 mps 737 mmHg 86%
22:00 +16°C° 0.1 mm 7 mps 736 mmHg 86%
23:00 +16°C° 0.1 mm 8 mps 736 mmHg 86%

Tomorrow, 5 July, Sunday

Time Temperature Precipitation Wind Pressure Humidity
00:00 +16°C° 0.1 mm 9 mps 735 mmHg 85%
01:00 +16°C° 0.1 mm 9 mps 735 mmHg 84%
02:00 +16°C° 0.1 mm 10 mps 735 mmHg 83%
03:00 +16°C° 0.1 mm 10 mps 734 mmHg 82%
04:00 +14°C° 0.1 mm 10 mps 735 mmHg 80%
05:00 +13°C° 0.1 mm 10 mps 735 mmHg 78%
06:00 +12°C° 0.1 mm 10 mps 736 mmHg 76%
07:00 +12°C° 0 mm 10 mps 736 mmHg 72%
08:00 +12°C° 0 mm 10 mps 737 mmHg 68%
09:00 +12°C° 0 mm 10 mps 738 mmHg 65%
10:00 +13°C° 0.1 mm 10 mps 738 mmHg 62%
11:00 +14°C° 0.1 mm 10 mps 738 mmHg 59%
12:00 +14°C° 0.1 mm 10 mps 738 mmHg 56%
13:00 +14°C° 0.1 mm 10 mps 738 mmHg 58%
14:00 +14°C° 0.1 mm 10 mps 738 mmHg 60%
15:00 +14°C° 0.1 mm 10 mps 738 mmHg 61%
16:00 +13°C° 0.2 mm 9 mps 738 mmHg 64%
17:00 +12°C° 0.2 mm 9 mps 738 mmHg 67%
18:00 +12°C° 0.2 mm 8 mps 738 mmHg 69%
19:00 +11°C° 0.2 mm 8 mps 738 mmHg 72%
20:00 +11°C° 0.2 mm 9 mps 738 mmHg 74%
21:00 +10°C° 0.2 mm 9 mps 739 mmHg 76%
22:00 +10°C° 0.1 mm 8 mps 739 mmHg 78%
23:00 +10°C° 0.1 mm 7 mps 739 mmHg 79%

Day after tomorrow, 6 July, Monday

Time Temperature Precipitation Wind Pressure Humidity
00:00 +10°C° 0.1 mm 7 mps 740 mmHg 80%
01:00 +9°C° 0 mm 7 mps 740 mmHg 80%
02:00 +9°C° 0 mm 7 mps 740 mmHg 80%
03:00 +9°C° 0 mm 7 mps 741 mmHg 79%
04:00 +9°C° 0.1 mm 7 mps 741 mmHg 81%
05:00 +10°C° 0.1 mm 7 mps 742 mmHg 82%
06:00 +10°C° 0.1 mm 7 mps 742 mmHg 83%
07:00 +11°C° 0.1 mm 7 mps 743 mmHg 79%
08:00 +13°C° 0.1 mm 6 mps 744 mmHg 75%
09:00 +14°C° 0.1 mm 6 mps 745 mmHg 70%
10:00 +15°C° 0.2 mm 6 mps 745 mmHg 67%
11:00 +15°C° 0.2 mm 5 mps 746 mmHg 64%
12:00 +16°C° 0.2 mm 5 mps 747 mmHg 61%
13:00 +16°C° 0.2 mm 6 mps 747 mmHg 62%
14:00 +16°C° 0.2 mm 6 mps 748 mmHg 62%
15:00 +16°C° 0.2 mm 6 mps 749 mmHg 63%
16:00 +15°C° 0 mm 6 mps 749 mmHg 64%
17:00 +15°C° 0 mm 5 mps 749 mmHg 66%
18:00 +14°C° 0 mm 5 mps 749 mmHg 68%
19:00 +13°C° 0 mm 4 mps 750 mmHg 70%
20:00 +12°C° 0 mm 4 mps 750 mmHg 72%
21:00 +10°C° 0 mm 4 mps 750 mmHg 75%
22:00 +10°C° 0 mm 4 mps 750 mmHg 76%
23:00 +8°C° 0 mm 4 mps 750 mmHg 77%

7 July, Tuesday

Time Temperature Precipitation Wind Pressure Humidity
00:00 +8°C° 0 mm 4 mps 750 mmHg 78%
01:00 +8°C° 0 mm 4 mps 750 mmHg 79%
02:00 +8°C° 0 mm 3 mps 750 mmHg 81%
03:00 +8°C° 0 mm 3 mps 750 mmHg 82%
04:00 +9°C° 0 mm 3 mps 750 mmHg 81%
05:00 +10°C° 0 mm 3 mps 750 mmHg 80%
06:00 +10°C° 0 mm 3 mps 750 mmHg 78%
07:00 +12°C° 0 mm 4 mps 750 mmHg 74%
08:00 +13°C° 0 mm 4 mps 750 mmHg 69%
09:00 +14°C° 0 mm 4 mps 750 mmHg 65%
10:00 +15°C° 0 mm 5 mps 749 mmHg 62%
11:00 +15°C° 0 mm 5 mps 749 mmHg 60%
12:00 +16°C° 0 mm 5 mps 749 mmHg 57%
13:00 +15°C° 0 mm 5 mps 749 mmHg 61%
14:00 +14°C° 0 mm 4 mps 748 mmHg 65%
15:00 +13°C° 0 mm 3 mps 748 mmHg 69%
16:00 +13°C° 0 mm 3 mps 748 mmHg 68%
17:00 +13°C° 0 mm 3 mps 747 mmHg 68%
18:00 +13°C° 0 mm 3 mps 747 mmHg 68%
19:00 +13°C° 0.3 mm 4 mps 746 mmHg 73%
20:00 +12°C° 0.3 mm 4 mps 746 mmHg 78%
21:00 +12°C° 0.3 mm 4 mps 746 mmHg 84%
22:00 +12°C° 0.2 mm 5 mps 745 mmHg 85%
23:00 +13°C° 0.2 mm 5 mps 744 mmHg 87%

8 July, Wednesday

Time Temperature Precipitation Wind Pressure Humidity
00:00 +13°C° 0.2 mm 5 mps 744 mmHg 88%
01:00 +13°C° 0.1 mm 6 mps 743 mmHg 88%
02:00 +14°C° 0.1 mm 6 mps 743 mmHg 88%
03:00 +14°C° 0.1 mm 6 mps 742 mmHg 88%
04:00 +14°C° 0.4 mm 7 mps 742 mmHg 88%
05:00 +15°C° 0.4 mm 7 mps 742 mmHg 88%
06:00 +15°C° 0.4 mm 8 mps 742 mmHg 88%
07:00 +15°C° 0.1 mm 8 mps 742 mmHg 87%
08:00 +15°C° 0.1 mm 8 mps 742 mmHg 86%
09:00 +16°C° 0.1 mm 8 mps 742 mmHg 86%
10:00 +16°C° 0.1 mm 8 mps 742 mmHg 80%
11:00 +16°C° 0.1 mm 9 mps 742 mmHg 74%
12:00 +16°C° 0.1 mm 9 mps 742 mmHg 69%
13:00 +16°C° 0 mm 9 mps 742 mmHg 68%
14:00 +16°C° 0 mm 9 mps 742 mmHg 67%
15:00 +16°C° 0 mm 9 mps 742 mmHg 66%
16:00 +15°C° 0 mm 8 mps 743 mmHg 67%
17:00 +15°C° 0 mm 7 mps 743 mmHg 68%
18:00 +14°C° 0 mm 7 mps 743 mmHg 69%
19:00 +14°C° 0 mm 6 mps 744 mmHg 71%
20:00 +13°C° 0 mm 4 mps 744 mmHg 72%
21:00 +12°C° 0 mm 3 mps 744 mmHg 74%
22:00 +13°C° 0 mm 2 mps 744 mmHg 76%
23:00 +12°C° 0 mm 1 mps 745 mmHg 77%

9 July, Thursday

Time Temperature Precipitation Wind Pressure Humidity
00:00 +12°C° 0 mm 1 mps 745 mmHg 79%
01:00 +12°C° 0 mm 1 mps 745 mmHg 80%
02:00 +11°C° 0 mm 0 mps 744 mmHg 81%
03:00 +10°C° 0 mm 0 mps 744 mmHg 82%
04:00 +12°C° 0 mm 1 mps 744 mmHg 81%
05:00 +12°C° 0 mm 1 mps 744 mmHg 81%
06:00 +12°C° 0 mm 1 mps 745 mmHg 80%
07:00 +13°C° 0 mm 1 mps 745 mmHg 76%
08:00 +14°C° 0 mm 1 mps 745 mmHg 72%
09:00 +15°C° 0 mm 2 mps 745 mmHg 67%
10:00 +15°C° 0.1 mm 2 mps 745 mmHg 66%
11:00 +16°C° 0.1 mm 2 mps 744 mmHg 65%
12:00 +16°C° 0.1 mm 2 mps 744 mmHg 64%
13:00 +16°C° 0.4 mm 2 mps 744 mmHg 65%
14:00 +16°C° 0.4 mm 2 mps 744 mmHg 66%
15:00 +16°C° 0.4 mm 2 mps 744 mmHg 68%
16:00 +15°C° 1.9 mm 2 mps 744 mmHg 74%
17:00 +14°C° 1.9 mm 2 mps 743 mmHg 81%
18:00 +13°C° 1.9 mm 2 mps 743 mmHg 87%
19:00 +12°C° 1.5 mm 2 mps 744 mmHg 87%
20:00 +12°C° 1.5 mm 2 mps 744 mmHg 88%
21:00 +10°C° 1.5 mm 2 mps 744 mmHg 88%
22:00 +11°C° 0.4 mm 1 mps 744 mmHg 88%
23:00 +11°C° 0.4 mm 1 mps 744 mmHg 89%
Show more